Location: Bailen
(14.1842°N, 120.7958°E)
Time: 17:12:58
(UTC+00:00)

Meteor 1-11 Rocket - Visible Passes

Search period start: 11 April 2026 00:00
Search period end: 21 April 2026 00:00
Orbit: 830 x 914 km, 81.2° (Epoch: 11 April)

Date Brightness Start Highest point End Pass type
(mag) Time Alt. Az. Time Alt. Az. Time Alt. Az.
11 Apr 5.6 19:35:56 10° NNE 19:40:55 29° E 19:45:48 10° SE visible
11 Apr 4.9 21:19:42 10° NW 21:23:57 21° W 21:28:09 10° SW visible
12 Apr 5.5 19:30:13 10° NNE 19:35:17 30° E 19:40:14 10° SE visible
12 Apr 5.0 21:14:13 10° NW 21:18:18 20° W 21:22:20 10° SW visible
13 Apr 5.4 19:24:30 10° NNE 19:29:38 32° E 19:34:40 10° SE visible
13 Apr 5.0 21:08:44 10° NW 21:12:38 19° W 21:16:30 10° SW visible
14 Apr 5.3 19:18:48 10° NNE 19:24:00 34° E 19:29:05 10° SE visible
14 Apr 5.1 21:03:15 10° NW 21:06:59 18° W 21:10:40 10° SW visible
15 Apr 5.1 19:13:06 10° NNE 19:18:22 35° E 19:23:31 10° SSE visible
15 Apr 5.1 20:57:48 10° NW 21:01:19 17° W 21:04:48 10° SW visible
16 Apr 5.0 19:07:24 10° NNE 19:12:43 37° E 19:14:15 32° ESE visible
16 Apr 5.2 20:52:21 10° NW 20:55:39 16° W 20:56:29 15° W visible
17 Apr 5.0 19:01:42 10° NNE 19:06:19 37° ENE 19:06:19 37° ENE visible
17 Apr 5.4 20:46:56 10° WNW 20:48:39 14° WNW 20:48:39 14° WNW visible
18 Apr 5.4 18:56:01 10° NNE 18:59:11 29° NE 18:59:11 29° NE visible
18 Apr 5.8 20:41:33 10° WNW 20:41:34 10° WNW 20:41:34 10° WNW visible
19 Apr 5.8 18:50:19 10° NNE 18:52:27 22° NNE 18:52:27 22° NNE visible
20 Apr 6.1 18:44:38 10° N 18:45:56 17° NNE 18:45:56 17° NNE visible
